Regional Weather Roundup
Issued by NWS

Home | Current Version | Previous Version | Text Only | Print | Product List | Glossary Off
Versions: 1 2 3 4 5 6 7 8 9 10 11 12 13 14 15 16 17 18 19 20 21 22 23 24 25 26 27 28 29 30 31 32 33 34 35 36 37 38 39 40 41 42 43 44 45 46 47 48 49 50

000
ASUS43 KMKX 232120
RWRWI

WISCONSIN REGIONAL WEATHER ROUNDUP
NATIONAL WEATHER SERVICE MILWAUKEE/SULLIVAN WI
300 PM CST FRI FEB 23 2018

NOTE: "FAIR" INDICATES FEW OR NO CLOUDS BELOW 12,000 FEET WITH NO
SIGNIFICANT WEATHER AND/OR OBSTRUCTIONS TO VISIBILITY.

WIZ001-002-006>008-014>016-023>028-232200-
NORTHWEST WISCONSIN

CITY           SKY/WX    TMP DP  RH WIND       PRES   REMARKS
SUPERIOR ARPT  CLOUDY    32  23  67 SW9       30.12S WCI  25
ASHLAND        CLOUDY    31  23  72 W13       30.11R WCI  21
HAYWARD        CLOUDY    30  23  75 VRB6      30.10S WCI  24
SIREN          FAIR      32  21  64 W7        30.14S WCI  26
CUMBERLAND     CLOUDY    30  21  69 W13       30.13S WCI  20
RICE LAKE      CLOUDY    30  23  74 W10       30.16R WCI  21
CHETEK         PTSUNNY   31  22  70 W6        30.15R WCI  25
LADYSMITH      PTSUNNY   31  23  72 W13       30.13R WCI  21
EAU CLAIRE     PTSUNNY   29  22  75 W9        30.17R WCI  20
MENOMONIE      CLOUDY    31  22  69 W10       30.18R WCI  22
NEW RICHMOND   FAIR      32  21  64 W13       30.17R WCI  22
OSCEOLA        FAIR      34  22  61 W9        30.20R WCI  27
$$

WIZ003>005-009-010-017-018-232200-
NORTH CENTRAL WISCONSIN

CITY           SKY/WX    TMP DP  RH WIND       PRES   REMARKS
MANITOWISH WTR CLOUDY    28  25  87 W10       30.04R WCI  19
ARBOR VITAE    CLOUDY    32  28  86 W9        30.04R WCI  24
WOODRUFF       CLOUDY    32  28  86 W9        30.04R WCI  24
RHINELANDER    CLOUDY    29  27  92 W18       30.04R WCI  16
EAGLE RIVER    CLOUDY    28  26  89 W12G22    30.03R WCI  18
LAND O LAKES   CLOUDY    29  25  85 W8        30.03R WCI  21
PHILLIPS       CLOUDY    28  24  82 W7        30.07S WCI  21
TOMAHAWK       CLOUDY    29  25  83 W13       30.07R WCI  19
MEDFORD        CLOUDY    28  24  84 W13G22    30.09R WCI  17
MERRILL        CLOUDY    30  26  85 W12G23    30.09R WCI  20
$$

WIZ029-030-035-036-043>047-232200-
CENTRAL WISCONSIN

CITY           SKY/WX    TMP DP  RH WIND       PRES   REMARKS
WAUSAU         CLOUDY    30  24  78 W14       30.08R WCI  19
MOSINEE        CLOUDY    30  27  86 W13G26    30.11R WCI  20
MARSHFIELD     CLOUDY    30  24  78 W14G23    30.11R WCI  19
STEVENS POINT  CLOUDY    29  24  82 W14G28    30.13R WCI  19
WAUPACA        CLOUDY    36  28  73 W15G28    30.13R WCI  26
WAUTOMA        CLOUDY    33  27  78 W16       30.15R WCI  23
WISC RAPIDS    CLOUDY    31  25  78 W10G24    30.15R WCI  22
CAMP DOUGLAS   CLOUDY    34  27  75 W12       30.17R WCI  25
$$

WIZ011>013-019>022-031-037>040-048>050-232200-
NORTHEAST WISCONSIN

CITY           SKY/WX    TMP DP  RH WIND       PRES   REMARKS
ANTIGO         CLOUDY    30  26  86 W20       30.05R WCI  18
SHAWANO        CLOUDY    37  29  74 W14G23    30.08R WCI  28
OCONTO         CLOUDY    37  30  77 W14G21    30.06R WCI  28
STURGEON BAY   CLOUDY    37  31  78 W12       30.06R WCI  29
GREEN BAY      CLOUDY    37  29  72 W16       30.09R WCI  28
MANITOWOC      CLOUDY    37  31  78 W15G24    30.10R WCI  28
APPLETON       CLOUDY    36  28  75 W17       30.09R WCI  25
CLINTONVILLE   CLOUDY    35  28  75 W15G22    30.09R WCI  25
OSHKOSH        CLOUDY    36  29  75 W10G21    30.12R WCI  28
$$

WIZ032>034-041-042-053>061-232200-
SOUTHWEST WISCONSIN

CITY           SKY/WX    TMP DP  RH WIND       PRES   REMARKS
LA CROSSE      FAIR      34  25  69 NW14      30.21R WCI  25
SPARTA         PTSUNNY   33  26  75 W8        30.20R WCI  26
VIROQUA        PTSUNNY   32  28  84 W9        30.17S WCI  24
BOSCOBEL       FAIR      38  25  59 W14G23    30.21R WCI  30
PRAIRIE DU CHI FAIR      34  24  66 W15       30.22S WCI  25
PLATTEVILLE    CLOUDY    34  30  86 W14       30.20R WCI  25
$$

WIZ056-057-062-063-064-067-068-232200-
SOUTH CENTRAL WISCONSIN

CITY           SKY/WX    TMP DP  RH WIND       PRES   REMARKS
REEDSBURG      CLOUDY    36  28  73 W13G20    30.16R WCI  28
BARABOO/DELLS  CLOUDY    37  29  74 W7        30.15R WCI  31
LONE ROCK      FAIR      37  28  70 W13       30.19R WCI  29
MINERAL POINT  FAIR      36  32  87 W17G24    30.17S WCI  25
MADISON        PTSUNNY   38  29  70 W9        30.16S WCI  31
MIDDLETON      CLOUDY    40  32  72 W9        30.16R WCI  34
WATERTOWN      CLOUDY    37  32  83 W7G16     30.14R WCI  31
MONROE         CLOUDY    36  30  80 W14G23    30.17R WCI  27
JANESVILLE     CLOUDY    39  32  75 W15G23    30.18R WCI  31
$$

WIZ051-052-058>065-066-070>072-232200-
SOUTHEAST WISCONSIN

CITY           SKY/WX    TMP DP  RH WIND       PRES   REMARKS
MILWAUKEE      CLOUDY    40  33  76 W14G22    30.15R WCI  32
WAUKESHA       CLOUDY    36  30  80 W15       30.15R WCI  26
MILWAUKEE/TIMM CLOUDY    37  30  75 W12       30.15R WCI  30
RACINE         CLOUDY    39  33  79 W12       30.18R WCI  32
BURLINGTON     CLOUDY    37  32  81 W12G17    30.17R WCI  29
KENOSHA        CLOUDY    39  32  76 W15       30.17R WCI  31
FOND DU LAC    CLOUDY    37  30  75 W12G22    30.12R WCI  29
SHEBOYGAN      CLOUDY    37  33  85 W13G22    30.11R WCI  29
WEST BEND      CLOUDY    36  34  93 W10G17    30.12R WCI  28
JUNEAU         CLOUDY    35  31  85 W12G20    30.15R WCI  27
$$

LSZ147-162-232200-
LAKE SUPERIOR

STATION/POSITION TIME  TEMP    WIND        PRES    WAVE
                       AIR SEA DIR/SP/G            HT/PER
                 (UTC) (F)     (DEG/KT/KT) (MB)    (FT/S)
DEVILS ISLAND    2100   31     250/ 14/ 17 1019.7R
SAXON HARBOR     2040   33     260/  6/  9 1018.6R
$$

LMZ867-665-643>646-232200-
LAKE MICHIGAN

STATION/POSITION TIME  TEMP    WIND        PRES    WAVE
                       AIR SEA DIR/SP/G            HT/PER
                 (UTC) (F)     (DEG/KT/KT) (MB)    (FT/S)
NORTHPORT PIER   2040   38                 1016.6R
KEWAUNEE LAKESHO 2054   38     260/  9/ 14 1017.5R
SHEBOYGAN LAKESH 2100   38     270/ 12/ 16 1020.1R
PORT WASHINGTON  2040   39     270/ 10/ 17 1021.0R
KENOSHA   LAKESH 2100   39     250/ 10/ 15 1022.0
$$

TC  - TEMPERATURE IN CELSIUS
VSB - VISIBILITY IN STATUTE MILES
WCI - WIND CHILL INDEX
HX  - HEAT INDEX




USA.gov is the U.S. government's official web portal to all federal, state and local government web resources and services.